Weather History for Yellowstone, WY

Change the Weather History Date:

Sunday, March 30, 2014

  Actual Average Record
Temperature  
Mean Temperature 26 °F 27 °F  
Max Temperature 30 °F 40 °F 50 °F (2004)
Min Temperature 22 °F 13 °F -13 °F (2008)
Degree Days  
Heating Degree Days 39 38  
Month to date heating degree days 1326 1264  
Since 1 July heating degree days 9379 9201  
Cooling Degree Days 0 0  
Month to date cooling degree days 0 0  
Year to date cooling degree days 0 0  
Moisture  
Dew Point 25 °F    
Average Humidity 91    
Maximum Humidity 100    
Minimum Humidity 81    
Precipitation  
Precipitation 0.38 in 0.05 in 0.38 in (2014)
Month to date precipitation 4.58 1.16  
Year to date precipitation 9.66 4.68  
Sea Level Pressure  
Sea Level Pressure 29.70 in    
Wind  
Wind Speed 4 mph (NNW)    
Max Wind Speed 12 mph    
Max Gust Speed 20 mph    
T = Trace of Precipitation, MM = Missing Value Source: NWS Daily Summary

Daily Weather History Graph

Daily Weather History Graph

Search for Another Location

Airport:

Trip Planner

Search our weather history database for the weather conditions in past years. The results will help you decide how hot, cold, wet, or windy it might be!

Date:

Astronomy

Mar. 30, 2014 Rise Set
Actual Time 7:06 AM MDT 7:46 PM MDT
Civil Twilight 6:36 AM MDT 8:16 PM MDT
Nautical Twilight 6:02 AM MDT 8:51 PM MDT
Astronomical Twilight 5:26 AM MDT 9:27 PM MDT
Moon 6:54 AM MDT 8:04 PM MDT
Length of Visible Light 13h 39m
Length of Day
12h 40m
Waning Crescent, 0% of the Moon is Illuminated
Mar 30
Waning Crescent
Mar 30
New
Apr 7
First Quarter
Apr 15
Full
Apr 22
Last Quarter

Hourly Weather History & Observations

Time (MDT) Temp. Windchill Dew Point Humidity Pressure Visibility Wind Dir Wind Speed Gust Speed Precip Events Conditions
12:56 AM 30.0 °F - 28.9 °F 96% 29.81 in - Calm Calm - 0.09 in   Unknown
1:56 AM 30.0 °F - 28.0 °F 92% 29.79 in - Calm Calm - 0.02 in   Unknown
2:56 AM 28.9 °F - 28.0 °F 96% 29.77 in - Calm Calm - 0.01 in   Unknown
3:56 AM 28.9 °F - 28.0 °F 96% 29.74 in - Calm Calm - 0.02 in   Unknown
4:56 AM 28.9 °F - 28.0 °F 96% 29.72 in - Calm Calm - 0.03 in   Unknown
5:56 AM 28.9 °F - 28.0 °F 96% 29.70 in - Calm Calm - 0.14 in   Unknown
9:56 AM 28.0 °F - 27.0 °F 96% 29.63 in - Calm Calm - N/A   Unknown
10:56 AM 28.9 °F - 28.0 °F 96% 29.62 in - Calm Calm - 0.07 in   Unknown
11:56 AM 28.0 °F 22.8 °F 26.1 °F 92% 29.61 in - Variable 4.6 mph - 0.06 in   Unknown
12:56 PM 28.9 °F 23.9 °F 26.1 °F 89% 29.58 in - Variable 4.6 mph - 0.06 in   Unknown
1:56 PM 28.9 °F 21.9 °F 26.1 °F 89% 29.58 in - Variable 6.9 mph - 0.04 in   Unknown
2:56 PM 28.0 °F 20.0 °F 25.0 °F 88% 29.59 in - NNW 8.1 mph - 0.05 in   Unknown
3:56 PM 28.9 °F 21.1 °F 25.0 °F 85% 29.60 in - NNW 8.1 mph - 0.04 in   Unknown
4:56 PM 28.0 °F 22.8 °F 24.1 °F 85% 29.63 in - Variable 4.6 mph - 0.03 in   Unknown
5:56 PM 27.0 °F - 23.0 °F 85% 29.66 in - North - - 0.02 in   Unknown
6:56 PM 26.1 °F 18.4 °F 21.9 °F 84% 29.70 in - Variable 6.9 mph - 0.01 in   Unknown
7:56 PM 25.0 °F 14.2 °F 21.0 °F 85% 29.72 in - NW 11.5 mph 19.6 mph N/A   Unknown
8:56 PM 24.1 °F 17.0 °F 21.0 °F 88% 29.74 in - NNW 5.8 mph - N/A   Unknown
9:56 PM 23.0 °F 15.8 °F 19.0 °F 85% 29.80 in - Variable 5.8 mph - N/A   Unknown
10:56 PM 23.0 °F 14.7 °F 19.0 °F 85% 29.83 in - Variable 6.9 mph - N/A   Unknown
11:56 PM 21.9 °F 13.4 °F 18.0 °F 85% 29.87 in - Variable 6.9 mph - N/A   Unknown